Date String (YYYY-MM-DD hh:mm:ss) UTC,Instrument flags,absolute air pressure of the measurement (hPa),sample flow rate (lpm),inlet stack bypass flow (lpm),air temperature of the measurement (°C),ambient temperature measured by the external sensor (°C),aerosol sample conditioner tube jacket temperature (°C),OPC LED temperature (°C),internal box temperature (°C),relative humidity of the measurement (%),span deviation,mass concentration of particles derived from Lorenz-Mie calculation of OPC scattering (μg/m³),mass concentration of particles derived from Lorenz-Mie calculation of OPC scattering (μg/m³),mass concentration of particles derived from Lorenz-Mie calculation of OPC scattering (μg/m³)
DateTimeUTC,F1_M11,P_M11,Q1_M11,Q2_M11,T1_M11,T2_M11,T3_M11,T4_M11,T5_M11,U1_M11,ZSPAN_M11,X0_M11,X2_M11,X1_M11
2023-11-17 06:00:00,SystemResetWarning,0830.1,5.00,000.00,027.7,026.7,000.0,036.1,029.1,21.2,0000.0,0007.89,0004.18,0003.69
2023-11-17 06:01:00,SystemResetWarning,0830.1,5.00,000.00,027.7,026.7,000.0,036.1,029.1,21.1,0000.0,0007.65,0004.16,0003.72
2023-11-17 06:02:00,SystemResetWarning,0830.1,5.00,000.00,027.7,026.7,000.0,036.1,029.1,20.8,0000.0,0007.45,0004.18,0003.73
2023-11-17 06:03:00,SystemResetWarning,0830.1,5.00,000.00,027.7,026.7,000.0,036.1,029.1,20.6,0000.0,0007.66,0004.20,0003.75
2023-11-17 06:04:00,SystemResetWarning,0830.1,5.00,000.00,027.7,026.7,000.0,036.1,029.1,20.4,0000.0,0007.61,0004.18,0003.75
2023-11-17 06:05:00,SystemResetWarning,0830.0,5.00,000.00,027.7,026.7,000.0,036.1,029.1,20.2,0000.0,0007.70,0004.19,0003.75
2023-11-17 06:06:00,SystemResetWarning,0830.1,5.00,000.00,027.7,026.7,000.0,036.1,029.1,20.1,0000.0,0007.72,0004.21,0003.76
2023-11-17 06:07:00,SystemResetWarning,0830.1,5.00,000.00,027.7,026.7,000.0,036.1,029.1,20.0,0000.0,0007.65,0004.19,0003.76
2023-11-17 06:08:00,SystemResetWarning,0830.1,4.99,000.00,027.7,026.7,000.0,036.1,029.0,20.0,0000.0,0007.41,0004.16,0003.74
2023-11-17 06:09:00,SystemResetWarning,0830.1,5.01,000.00,027.7,026.7,000.0,036.1,029.1,20.0,0000.0,0007.55,0004.18,0003.74
2023-11-17 06:10:00,SystemResetWarning,0830.1,5.01,000.00,027.7,026.7,000.0,036.1,029.1,20.0,0000.0,0007.75,0004.21,0003.74
2023-11-17 06:11:00,SystemResetWarning,0830.2,5.01,000.00,027.7,026.7,000.0,036.1,029.1,20.0,0000.0,0008.71,0004.23,0003.74
2023-11-17 06:12:00,SystemResetWarning,0830.2,5.00,000.00,027.7,026.7,000.0,036.1,029.1,19.9,0000.0,0008.83,0004.21,0003.73
2023-11-17 06:13:00,SystemResetWarning,0830.2,4.99,000.00,027.7,026.7,000.0,036.1,029.1,19.9,0000.0,0009.20,0004.19,0003.72
2023-11-17 06:14:00,SystemResetWarning,0830.2,4.99,000.00,027.7,026.7,000.0,036.1,029.1,19.9,0000.0,0009.44,0004.16,0003.72
2023-11-17 06:15:00,SystemResetWarning,0830.1,5.00,000.00,027.7,026.7,000.0,036.1,029.1,19.9,0000.0,0009.58,0004.15,0003.72
2023-11-17 06:16:00,SystemResetWarning,0830.1,5.01,000.00,027.7,026.7,000.0,036.1,029.1,19.9,0000.0,0009.58,0004.15,0003.72
2023-11-17 06:17:00,SystemResetWarning,0830.1,5.00,000.00,027.7,026.7,000.0,036.1,029.2,20.0,0000.0,0009.78,0004.15,0003.72
2023-11-17 06:18:00,SystemResetWarning,0830.2,5.00,000.00,027.7,026.7,000.0,036.1,029.2,20.0,0000.0,0009.86,0004.16,0003.71
2023-11-17 06:19:00,SystemResetWarning,0830.2,5.00,000.00,027.7,026.7,000.0,036.1,029.1,20.0,0000.0,0009.85,0004.16,0003.72
2023-11-17 06:20:00,SystemResetWarning,0830.3,5.01,000.00,027.7,026.7,000.0,036.1,029.1,20.0,0000.0,0009.79,0004.16,0003.73
2023-11-17 06:21:00,SystemResetWarning,0830.3,5.00,000.00,027.7,026.7,000.0,036.1,029.1,20.0,0000.0,0010.07,0004.15,0003.73
2023-11-17 06:22:00,SystemResetWarning,0830.3,4.99,000.00,027.7,026.7,000.0,036.1,029.1,20.0,0000.0,0009.64,0004.16,0003.75
2023-11-17 06:23:00,SystemResetWarning,0830.2,5.00,000.00,027.7,026.7,000.0,036.1,029.1,20.1,0000.0,0009.52,0004.20,0003.76
2023-11-17 06:24:00,SystemResetWarning,0830.3,5.00,000.00,027.7,026.7,000.0,036.1,029.1,20.1,0000.0,0010.13,0004.26,0003.77
2023-11-17 06:25:00,SystemResetWarning,0830.2,5.00,000.00,027.7,026.7,000.0,036.1,029.1,20.1,0000.0,0009.89,0004.28,0003.79
2023-11-17 06:26:00,SystemResetWarning,0830.2,5.00,000.00,027.7,026.7,000.0,036.1,029.1,20.1,0000.0,0009.76,0004.31,0003.80
2023-11-17 06:27:00,SystemResetWarning,0830.2,5.01,000.00,027.7,026.7,000.0,036.1,029.1,20.1,0000.0,0010.00,0004.33,0003.80
2023-11-17 06:28:00,SystemResetWarning,0830.1,5.01,000.00,027.7,026.7,000.0,036.1,029.1,20.2,0000.0,0010.29,0004.35,0003.81
2023-11-17 06:29:00,SystemResetWarning,0830.1,5.01,000.00,027.7,026.7,000.0,036.1,029.1,20.2,0000.0,0010.54,0004.43,0003.84
2023-11-17 06:30:00,SystemResetWarning,0830.0,5.00,000.00,027.7,026.7,000.0,036.1,029.1,20.2,0000.0,0010.58,0004.48,0003.86
2023-11-17 06:31:00,SystemResetWarning,0830.0,5.01,000.00,027.7,026.7,000.0,036.1,029.1,20.2,0000.0,0011.07,0004.48,0003.86
2023-11-17 06:32:00,SystemResetWarning,0830.1,4.99,000.00,027.7,026.7,000.0,036.1,029.1,20.3,0000.0,0010.73,0004.52,0003.87
2023-11-17 06:33:00,SystemResetWarning,0830.1,4.99,000.00,027.7,026.7,000.0,036.1,029.1,20.3,0000.0,0010.25,0004.48,0003.87
2023-11-17 06:34:00,SystemResetWarning,0830.1,5.00,000.00,027.7,026.7,000.0,036.1,029.1,20.3,0000.0,0010.14,0004.50,0003.88
2023-11-17 06:35:00,SystemResetWarning,0830.0,5.00,000.00,027.7,026.7,000.0,036.1,029.1,20.3,0000.0,0009.63,0004.48,0003.88
2023-11-17 06:36:00,SystemResetWarning,0830.0,5.00,000.00,027.7,026.7,000.0,036.1,029.1,20.3,0000.0,0009.56,0004.49,0003.88
2023-11-17 06:37:00,SystemResetWarning,0830.0,5.00,000.00,027.7,026.7,000.0,036.1,029.1,20.3,0000.0,0009.73,0004.50,0003.88
2023-11-17 06:38:00,SystemResetWarning,0830.0,5.00,000.00,027.7,026.7,000.0,036.1,029.1,20.3,0000.0,0009.43,0004.49,0003.88
2023-11-17 06:39:00,SystemResetWarning,0830.0,5.01,000.00,027.7,026.7,000.0,036.1,029.2,20.3,0000.0,0008.88,0004.44,0003.88
2023-11-17 06:40:00,SystemResetWarning,0830.0,5.00,000.00,027.7,026.7,000.0,036.1,029.1,20.3,0000.0,0008.62,0004.39,0003.87
2023-11-17 06:41:00,SystemResetWarning,0830.0,4.99,000.00,027.7,026.7,000.0,036.1,029.1,20.3,0000.0,0008.83,0004.38,0003.87
2023-11-17 06:42:00,SystemResetWarning,0830.1,4.99,000.00,027.7,026.7,000.0,036.1,029.1,20.3,0000.0,0008.72,0004.42,0003.88
2023-11-17 06:43:00,SystemResetWarning,0830.1,5.00,000.00,027.7,026.7,000.0,036.1,029.1,20.4,0000.0,0008.81,0004.43,0003.89
2023-11-17 06:44:00,SystemResetWarning,0830.0,5.00,000.00,027.7,026.7,000.0,036.1,029.1,20.4,0000.0,0008.94,0004.48,0003.89
2023-11-17 06:45:00,SystemResetWarning,0830.0,5.01,000.00,027.7,026.7,000.0,036.1,029.0,20.4,0000.0,0009.03,0004.49,0003.89
2023-11-17 06:46:00,SystemResetWarning,0830.0,4.99,000.00,027.7,026.7,000.0,036.1,029.0,20.4,0000.0,0009.30,0004.50,0003.90
2023-11-17 06:47:00,SystemResetWarning,0830.0,5.00,000.00,027.7,026.7,000.0,036.1,029.0,20.4,0000.0,0009.70,0004.51,0003.90
2023-11-17 06:48:00,SystemResetWarning,0830.0,5.00,000.00,027.7,026.6,000.0,036.1,029.0,20.5,0000.0,0009.57,0004.52,0003.92
2023-11-17 06:49:00,SystemResetWarning,0830.0,4.99,000.00,027.7,026.6,000.0,036.1,029.1,20.5,0000.0,0009.55,0004.54,0003.92
2023-11-17 06:50:00,SystemResetWarning,0830.0,5.01,000.00,027.6,026.7,000.0,036.1,029.1,20.5,0000.0,0009.80,0004.58,0003.94
2023-11-17 06:51:00,SystemResetWarning,0830.0,4.99,000.00,027.7,026.7,000.0,036.1,029.1,20.5,0000.0,0010.34,0004.59,0003.94
2023-11-17 06:52:00,SystemResetWarning,0830.0,5.00,000.00,027.7,026.6,000.0,036.1,029.0,20.6,0000.0,0010.64,0004.58,0003.95
2023-11-17 06:53:00,SystemResetWarning,0830.0,5.00,000.00,027.6,026.6,000.0,036.1,029.1,20.6,0000.0,0010.44,0004.58,0003.96
2023-11-17 06:54:00,SystemResetWarning,0830.0,4.99,000.00,027.6,026.6,000.0,036.1,029.0,20.6,0000.0,0010.36,0004.57,0003.96
2023-11-17 06:55:00,SystemResetWarning,0830.0,5.00,000.00,027.6,026.6,000.0,036.1,029.0,20.6,0000.0,0010.30,0004.53,0003.96
2023-11-17 06:56:00,SystemResetWarning,0830.0,5.00,000.00,027.6,026.6,000.0,036.1,029.0,20.6,0000.0,0010.22,0004.51,0003.97
2023-11-17 06:57:00,SystemResetWarning,0829.9,5.01,000.00,027.6,026.6,000.0,036.0,029.0,20.6,0000.0,0009.76,0004.50,0003.98
2023-11-17 06:58:00,SystemResetWarning,0830.0,5.00,000.00,027.6,026.6,000.0,036.0,029.0,20.6,0000.0,0009.33,0004.54,0004.00
2023-11-17 06:59:00,SystemResetWarning,0830.1,5.00,000.00,027.6,026.6,000.0,036.0,029.0,20.6,0000.0,0009.41,0004.55,0004.00
